RYR629 LPFR-LPMA

Flight info

Callsign RYR629
Flight time 1h 31m
Altitude 35000
Route IMA4F GIMAL DCT NARTA DCT GALPA DCT RAKUN RAKU1P
Aircraft B738/M-V/N

Departure

Time 2026-05-06 09:22
Airport Faro - Gago Coutinho International Airport (LPFR)

Arrival

Time 2026-05-06 10:53
Airport Cristiano Ronaldo International Airport (LPMA)
Time Latitude Longitude Altitude Speed Heading
2026-05-06 09:10 37.01884 -7.97203 29 ft 1 kts 10°
2026-05-06 09:12 37.01868 -7.97205 29 ft 4 kts
2026-05-06 09:12 37.01843 -7.97199 29 ft 4 kts 327°
2026-05-06 09:12 37.01827 -7.97176 29 ft 4 kts 291°
2026-05-06 09:12 37.01821 -7.97151 29 ft 0 kts 280°
2026-05-06 09:15 37.01824 -7.97168 29 ft 7 kts 280°
2026-05-06 09:15 37.01835 -7.97247 29 ft 11 kts 280°
2026-05-06 09:15 37.01844 -7.97347 29 ft 12 kts 257°
2026-05-06 09:16 37.01788 -7.97422 29 ft 12 kts 216°
2026-05-06 09:16 37.01758 -7.97515 30 ft 12 kts 279°
2026-05-06 09:16 37.01773 -7.97617 28 ft 12 kts 280°
2026-05-06 09:16 37.01786 -7.97717 30 ft 11 kts 278°
2026-05-06 09:17 37.01797 -7.97814 30 ft 11 kts 278°
2026-05-06 09:17 37.01812 -7.97906 31 ft 11 kts 281°
2026-05-06 09:17 37.01826 -7.97998 31 ft 11 kts 280°
2026-05-06 09:17 37.01839 -7.98087 31 ft 10 kts 280°
2026-05-06 09:18 37.01851 -7.98173 31 ft 10 kts 280°
2026-05-06 09:18 37.01863 -7.98257 32 ft 10 kts 280°
2026-05-06 09:18 37.01876 -7.98338 32 ft 9 kts 281°
2026-05-06 09:18 37.01887 -7.98418 30 ft 9 kts 279°
2026-05-06 09:19 37.01898 -7.98495 32 ft 9 kts 279°
2026-05-06 09:19 37.01866 -7.98558 32 ft 9 kts 227°
2026-05-06 09:19 37.01838 -7.98573 32 ft 0 kts 191°
2026-05-06 09:20 37.01815 -7.98579 33 ft 10 kts 191°
2026-05-06 09:20 37.01724 -7.98548 34 ft 19 kts 117°
2026-05-06 09:21 37.01700 -7.98388 32 ft 19 kts 100°
2026-05-06 09:21 37.01654 -7.98064 32 ft 75 kts 100°
2026-05-06 09:21 37.01512 -7.97069 28 ft 154 kts 101°
2026-05-06 09:21 37.01274 -7.95505 206 ft 205 kts 100°
2026-05-06 09:22 37.01058 -7.93850 852 ft 217 kts 100°
2026-05-06 09:22 37.00761 -7.91965 1729 ft 229 kts 99°
2026-05-06 09:22 37.00075 -7.90080 2264 ft 248 kts 133°
2026-05-06 09:22 36.98562 -7.89051 2991 ft 254 kts 170°
2026-05-06 09:23 36.96820 -7.89283 3743 ft 256 kts 202°
2026-05-06 09:23 36.95380 -7.90576 4500 ft 257 kts 233°
2026-05-06 09:23 36.94582 -7.92542 5272 ft 255 kts 253°
2026-05-06 09:23 36.94141 -7.94709 5942 ft 259 kts 259°
2026-05-06 09:24 36.93784 -7.96927 6620 ft 261 kts 261°
2026-05-06 09:24 36.93440 -7.99158 7298 ft 262 kts 261°
2026-05-06 09:24 36.93082 -8.01456 7769 ft 279 kts 260°
2026-05-06 09:24 36.92697 -8.03880 8429 ft 288 kts 259°
2026-05-06 09:25 36.92295 -8.06344 9288 ft 290 kts 259°
2026-05-06 09:25 36.91056 -8.13739 11681 ft 298 kts 258°
2026-05-06 09:26 36.90621 -8.16289 12422 ft 301 kts 258°
2026-05-06 09:26 36.90180 -8.18857 13237 ft 304 kts 258°
2026-05-06 09:26 36.89731 -8.21457 13946 ft 308 kts 258°
2026-05-06 09:26 36.89271 -8.24118 14680 ft 310 kts 258°
2026-05-06 09:27 36.88814 -8.26756 15413 ft 312 kts 258°
2026-05-06 09:27 36.88351 -8.29416 16101 ft 315 kts 258°
2026-05-06 09:27 36.87884 -8.32101 16807 ft 318 kts 258°
2026-05-06 09:27 36.87412 -8.34804 17536 ft 320 kts 258°
2026-05-06 09:28 36.86936 -8.37524 18218 ft 322 kts 258°
2026-05-06 09:28 36.86457 -8.40265 18764 ft 324 kts 258°
2026-05-06 09:28 36.85973 -8.43021 19310 ft 326 kts 258°
2026-05-06 09:28 36.85488 -8.45787 19862 ft 327 kts 258°
2026-05-06 09:29 36.84998 -8.48571 20410 ft 329 kts 257°
2026-05-06 09:29 36.84506 -8.51366 20951 ft 331 kts 257°
2026-05-06 09:29 36.84010 -8.54179 21487 ft 332 kts 257°
2026-05-06 09:29 36.83511 -8.57003 22015 ft 334 kts 257°
2026-05-06 09:30 36.83178 -8.58883 22357 ft 336 kts 257°
2026-05-06 09:30 36.82680 -8.61698 22877 ft 337 kts 257°
2026-05-06 09:30 36.82171 -8.64565 23391 ft 339 kts 257°
2026-05-06 09:30 36.81660 -8.67445 23848 ft 341 kts 257°
2026-05-06 09:31 36.81146 -8.70336 24288 ft 342 kts 257°
2026-05-06 09:31 36.80630 -8.73229 24728 ft 343 kts 257°
2026-05-06 09:31 36.80112 -8.76135 25153 ft 344 kts 257°
2026-05-06 09:31 36.79590 -8.79053 25567 ft 345 kts 257°
2026-05-06 09:32 36.79067 -8.81980 25976 ft 347 kts 257°
2026-05-06 09:32 36.78540 -8.84918 26419 ft 346 kts 257°
2026-05-06 09:32 36.78016 -8.87837 26967 ft 343 kts 256°
2026-05-06 09:32 36.77497 -8.90729 27522 ft 340 kts 256°
2026-05-06 09:33 36.76981 -8.93598 28018 ft 338 kts 256°
2026-05-06 09:33 36.76466 -8.96453 28494 ft 337 kts 256°
2026-05-06 09:33 36.75949 -8.99315 28803 ft 341 kts 256°
2026-05-06 09:34 36.74875 -9.05245 28957 ft 358 kts 256°
2026-05-06 09:34 36.74322 -9.08292 29233 ft 361 kts 256°
2026-05-06 09:34 36.73766 -9.11351 29625 ft 362 kts 256°
2026-05-06 09:34 36.73210 -9.14412 29981 ft 363 kts 256°
2026-05-06 09:35 36.72651 -9.17479 30260 ft 365 kts 256°
2026-05-06 09:35 36.72087 -9.20569 30507 ft 367 kts 256°
2026-05-06 09:35 36.71520 -9.23676 30769 ft 368 kts 256°
2026-05-06 09:35 36.70950 -9.26791 31018 ft 370 kts 256°
2026-05-06 09:36 36.70375 -9.29923 31264 ft 372 kts 256°
2026-05-06 09:36 36.69798 -9.33069 31498 ft 374 kts 256°
2026-05-06 09:36 36.69216 -9.36230 31727 ft 375 kts 256°
2026-05-06 09:36 36.68631 -9.39408 31960 ft 377 kts 256°
2026-05-06 09:37 36.68041 -9.42603 32183 ft 379 kts 256°
2026-05-06 09:37 36.67449 -9.45807 32416 ft 381 kts 256°
2026-05-06 09:37 36.66853 -9.49025 32629 ft 382 kts 256°
2026-05-06 09:37 36.66253 -9.52261 32837 ft 384 kts 256°
2026-05-06 09:38 36.65650 -9.55512 33041 ft 386 kts 256°
2026-05-06 09:38 36.65071 -9.58780 33250 ft 388 kts 258°
2026-05-06 09:38 36.64553 -9.62085 33447 ft 390 kts 258°
2026-05-06 09:38 36.64031 -9.65409 33639 ft 392 kts 258°
2026-05-06 09:39 36.63484 -9.68737 33829 ft 393 kts 257°
2026-05-06 09:39 36.62907 -9.72073 34020 ft 395 kts 257°
2026-05-06 09:39 36.62306 -9.75415 34175 ft 397 kts 257°
2026-05-06 09:40 36.61051 -9.82172 34279 ft 405 kts 256°
2026-05-06 09:40 36.59072 -9.92590 34364 ft 419 kts 256°
2026-05-06 09:41 36.57710 -9.99710 34424 ft 427 kts 256°
2026-05-06 09:41 36.56347 -10.06819 34492 ft 433 kts 256°
2026-05-06 09:42 36.54943 -10.14119 34642 ft 435 kts 256°
2026-05-06 09:42 36.53527 -10.21454 34783 ft 437 kts 257°
2026-05-06 09:43 36.52101 -10.28816 34927 ft 438 kts 257°
2026-05-06 09:43 36.50668 -10.36183 35057 ft 439 kts 257°
2026-05-06 09:44 36.49213 -10.43644 35066 ft 443 kts 257°
2026-05-06 09:44 36.47755 -10.51091 35070 ft 445 kts 257°
2026-05-06 09:45 36.46299 -10.58499 35065 ft 444 kts 257°
2026-05-06 09:45 36.44821 -10.65996 35068 ft 444 kts 257°
2026-05-06 09:46 36.43355 -10.73401 35069 ft 445 kts 257°
2026-05-06 09:46 36.41864 -10.80909 35069 ft 446 kts 257°
2026-05-06 09:47 36.40375 -10.88385 35072 ft 447 kts 257°
2026-05-06 09:47 36.38876 -10.95878 35075 ft 448 kts 257°
2026-05-06 09:48 36.37371 -11.03381 35075 ft 449 kts 257°
2026-05-06 09:48 36.35857 -11.10899 35080 ft 450 kts 257°
2026-05-06 09:49 36.34333 -11.18437 35080 ft 451 kts 257°
2026-05-06 09:49 36.32800 -11.25995 35084 ft 452 kts 257°
2026-05-06 09:50 36.31259 -11.33569 35087 ft 454 kts 257°
2026-05-06 09:50 36.29708 -11.41162 35087 ft 455 kts 257°
2026-05-06 09:51 36.28150 -11.48767 35090 ft 456 kts 258°
2026-05-06 09:51 36.26583 -11.56385 35093 ft 457 kts 258°
2026-05-06 09:52 36.25008 -11.64019 35092 ft 458 kts 258°
2026-05-06 09:52 36.23428 -11.71649 35095 ft 458 kts 258°
2026-05-06 09:53 36.21834 -11.79317 35098 ft 459 kts 258°
2026-05-06 09:53 36.20238 -11.86972 35105 ft 460 kts 258°
2026-05-06 09:54 36.18634 -11.94638 35103 ft 460 kts 258°
2026-05-06 09:54 36.17022 -12.02313 35102 ft 461 kts 258°
2026-05-06 09:55 36.15405 -12.09988 35102 ft 461 kts 258°
2026-05-06 09:55 36.13780 -12.17673 35104 ft 462 kts 258°
2026-05-06 09:56 36.12150 -12.25360 35109 ft 462 kts 258°
2026-05-06 09:56 36.10514 -12.33047 35111 ft 462 kts 258°
2026-05-06 09:57 36.08873 -12.40732 35113 ft 462 kts 258°
2026-05-06 09:57 36.07229 -12.48407 35118 ft 462 kts 258°
2026-05-06 09:58 36.04934 -12.55844 35116 ft 467 kts 243°
2026-05-06 09:58 36.01025 -12.62293 35125 ft 472 kts 230°
2026-05-06 09:59 35.96544 -12.68233 35115 ft 473 kts 230°
2026-05-06 09:59 35.92050 -12.74161 35119 ft 473 kts 230°
2026-05-06 10:00 35.87589 -12.80113 35117 ft 472 kts 230°
2026-05-06 10:00 35.83144 -12.86074 35117 ft 472 kts 230°
2026-05-06 10:01 35.78702 -12.92031 35119 ft 472 kts 230°
2026-05-06 10:01 35.74261 -12.97974 35118 ft 471 kts 230°
2026-05-06 10:02 35.69821 -13.03901 35124 ft 471 kts 230°
2026-05-06 10:02 35.65384 -13.09814 35123 ft 471 kts 230°
2026-05-06 10:03 35.60941 -13.15726 35125 ft 470 kts 230°
2026-05-06 10:03 35.56502 -13.21620 35130 ft 470 kts 230°
2026-05-06 10:04 35.52062 -13.27506 35130 ft 469 kts 230°
2026-05-06 10:04 35.47625 -13.33378 35130 ft 469 kts 230°
2026-05-06 10:05 35.43191 -13.39236 35131 ft 468 kts 230°
2026-05-06 10:05 35.38756 -13.45085 35129 ft 468 kts 230°
2026-05-06 10:06 35.34322 -13.50921 35134 ft 468 kts 230°
2026-05-06 10:06 35.29890 -13.56746 35136 ft 467 kts 230°
2026-05-06 10:07 35.25454 -13.62566 35138 ft 467 kts 230°
2026-05-06 10:07 35.21023 -13.68368 35138 ft 467 kts 230°
2026-05-06 10:08 35.17308 -13.73226 35140 ft 466 kts 230°
2026-05-06 10:08 35.12877 -13.79011 35146 ft 466 kts 230°
2026-05-06 10:09 35.08445 -13.84787 35148 ft 466 kts 230°
2026-05-06 10:09 35.04012 -13.90555 35141 ft 465 kts 230°
2026-05-06 10:10 34.99583 -13.96309 35143 ft 465 kts 230°
2026-05-06 10:10 34.95152 -14.02054 35145 ft 465 kts 230°
2026-05-06 10:11 34.90722 -14.07789 35147 ft 464 kts 229°
2026-05-06 10:11 34.86290 -14.13517 35141 ft 464 kts 229°
2026-05-06 10:12 34.81865 -14.19226 35149 ft 464 kts 229°
2026-05-06 10:12 34.77431 -14.24937 35146 ft 464 kts 229°
2026-05-06 10:13 34.73000 -14.30635 35147 ft 464 kts 229°
2026-05-06 10:13 34.68569 -14.36323 35149 ft 463 kts 229°
2026-05-06 10:14 34.64136 -14.42005 35145 ft 463 kts 229°
2026-05-06 10:14 34.59706 -14.47673 34828 ft 458 kts 229°
2026-05-06 10:15 34.57537 -14.50440 34596 ft 447 kts 229°
2026-05-06 10:15 34.55415 -14.53148 34274 ft 439 kts 229°
2026-05-06 10:15 34.53332 -14.55805 33927 ft 430 kts 229°
2026-05-06 10:15 34.51288 -14.58411 33570 ft 423 kts 229°
2026-05-06 10:16 34.49284 -14.60966 33211 ft 415 kts 229°
2026-05-06 10:16 34.47306 -14.63484 32864 ft 409 kts 229°
2026-05-06 10:16 34.45346 -14.65982 32530 ft 409 kts 229°
2026-05-06 10:16 34.43379 -14.68487 32200 ft 412 kts 229°
2026-05-06 10:17 34.41394 -14.71010 31880 ft 414 kts 229°
2026-05-06 10:17 34.39410 -14.73527 31548 ft 411 kts 229°
2026-05-06 10:17 34.37443 -14.76019 31221 ft 408 kts 229°
2026-05-06 10:17 34.35483 -14.78499 30886 ft 406 kts 229°
2026-05-06 10:18 34.33535 -14.80963 30556 ft 405 kts 229°
2026-05-06 10:18 34.31593 -14.83420 30213 ft 403 kts 229°
2026-05-06 10:18 34.29660 -14.85864 29823 ft 401 kts 229°
2026-05-06 10:18 34.27734 -14.88298 29434 ft 400 kts 229°
2026-05-06 10:19 34.25816 -14.90720 29051 ft 398 kts 229°
2026-05-06 10:19 34.23906 -14.93130 28666 ft 396 kts 229°
2026-05-06 10:19 34.22006 -14.95525 28292 ft 394 kts 229°
2026-05-06 10:19 34.20121 -14.97902 27921 ft 391 kts 229°
2026-05-06 10:20 34.18341 -15.00142 27575 ft 389 kts 229°
2026-05-06 10:20 34.16473 -15.02494 27211 ft 386 kts 229°
2026-05-06 10:20 34.14617 -15.04827 26851 ft 384 kts 229°
2026-05-06 10:20 34.12773 -15.07145 26500 ft 381 kts 229°
2026-05-06 10:21 34.10940 -15.09448 26152 ft 379 kts 229°
2026-05-06 10:21 34.09118 -15.11734 25812 ft 377 kts 229°
2026-05-06 10:21 34.07306 -15.14008 25472 ft 375 kts 229°
2026-05-06 10:21 34.05503 -15.16267 25135 ft 373 kts 229°
2026-05-06 10:22 34.03705 -15.18520 24802 ft 371 kts 229°
2026-05-06 10:22 34.01919 -15.20756 24476 ft 370 kts 229°
2026-05-06 10:22 34.00137 -15.22985 24153 ft 368 kts 229°
2026-05-06 10:22 33.98365 -15.25202 23835 ft 367 kts 229°
2026-05-06 10:23 33.96595 -15.27413 23474 ft 366 kts 229°
2026-05-06 10:23 33.94833 -15.29614 23096 ft 364 kts 229°
2026-05-06 10:23 33.93077 -15.31805 22722 ft 363 kts 229°
2026-05-06 10:23 33.91327 -15.33988 22354 ft 361 kts 229°
2026-05-06 10:24 33.89585 -15.36159 21987 ft 360 kts 229°
2026-05-06 10:24 33.87848 -15.38323 21627 ft 358 kts 229°
2026-05-06 10:24 33.86122 -15.40471 21270 ft 356 kts 228°
2026-05-06 10:24 33.84401 -15.42612 20916 ft 354 kts 228°
2026-05-06 10:25 33.82694 -15.44733 20589 ft 352 kts 228°
2026-05-06 10:25 33.81000 -15.46838 20268 ft 349 kts 228°
2026-05-06 10:25 33.79315 -15.48930 19952 ft 347 kts 228°
2026-05-06 10:25 33.77645 -15.51003 19638 ft 344 kts 228°
2026-05-06 10:26 33.75982 -15.53066 19327 ft 342 kts 228°
2026-05-06 10:26 33.74332 -15.55111 19024 ft 340 kts 228°
2026-05-06 10:26 33.72689 -15.57147 18719 ft 339 kts 228°
2026-05-06 10:26 33.71053 -15.59173 18410 ft 337 kts 228°
2026-05-06 10:27 33.69425 -15.61187 18067 ft 335 kts 228°
2026-05-06 10:27 33.67804 -15.63193 17730 ft 334 kts 228°
2026-05-06 10:27 33.66184 -15.65195 17383 ft 333 kts 228°
2026-05-06 10:27 33.64573 -15.67186 17035 ft 332 kts 228°
2026-05-06 10:28 33.62965 -15.69171 16717 ft 331 kts 228°
2026-05-06 10:28 33.61360 -15.71152 16390 ft 331 kts 228°
2026-05-06 10:28 33.59760 -15.73126 16063 ft 329 kts 228°
2026-05-06 10:28 33.58171 -15.75086 15735 ft 326 kts 227°
2026-05-06 10:29 33.56597 -15.77022 15418 ft 323 kts 228°
2026-05-06 10:29 33.55028 -15.78940 15101 ft 321 kts 227°
2026-05-06 10:29 33.53445 -15.80815 14786 ft 319 kts 226°
2026-05-06 10:29 33.51863 -15.82664 14468 ft 317 kts 226°
2026-05-06 10:30 33.50290 -15.84499 14166 ft 315 kts 226°
2026-05-06 10:30 33.48729 -15.86319 13845 ft 313 kts 226°
2026-05-06 10:30 33.47176 -15.88132 13504 ft 311 kts 226°
2026-05-06 10:30 33.45633 -15.89934 13165 ft 309 kts 226°
2026-05-06 10:31 33.44099 -15.91727 12829 ft 307 kts 226°
2026-05-06 10:31 33.42573 -15.93511 12495 ft 306 kts 226°
2026-05-06 10:31 33.41055 -15.95285 12231 ft 303 kts 226°
2026-05-06 10:31 33.39556 -15.97035 11979 ft 299 kts 226°
2026-05-06 10:32 33.38076 -15.98764 11726 ft 296 kts 226°
2026-05-06 10:32 33.36608 -16.00476 11473 ft 293 kts 226°
2026-05-06 10:32 33.35157 -16.02170 11231 ft 290 kts 226°
2026-05-06 10:32 33.33724 -16.03842 10977 ft 286 kts 226°
2026-05-06 10:33 33.32300 -16.05501 10734 ft 285 kts 225°
2026-05-06 10:33 33.30885 -16.07151 10494 ft 284 kts 225°
2026-05-06 10:33 33.29474 -16.08794 10259 ft 283 kts 225°
2026-05-06 10:33 33.28049 -16.10454 10012 ft 282 kts 225°
2026-05-06 10:34 33.26663 -16.12066 9752 ft 281 kts 225°
2026-05-06 10:34 33.25243 -16.13717 9491 ft 281 kts 225°
2026-05-06 10:34 33.23844 -16.15342 9227 ft 280 kts 225°
2026-05-06 10:34 33.22448 -16.16965 8969 ft 280 kts 225°
2026-05-06 10:35 33.21071 -16.18565 8715 ft 279 kts 225°
2026-05-06 10:35 33.19681 -16.20178 8461 ft 279 kts 225°
2026-05-06 10:35 33.18276 -16.21809 8202 ft 277 kts 225°
2026-05-06 10:35 33.16920 -16.23380 7935 ft 266 kts 225°
2026-05-06 10:36 33.15645 -16.24857 7726 ft 253 kts 225°
2026-05-06 10:36 33.14435 -16.26258 7510 ft 243 kts 225°
2026-05-06 10:36 33.13268 -16.27609 7311 ft 232 kts 226°
2026-05-06 10:36 33.12139 -16.28916 7126 ft 221 kts 226°
2026-05-06 10:37 33.11061 -16.30163 6924 ft 210 kts 225°
2026-05-06 10:37 33.10042 -16.31343 6751 ft 199 kts 225°
2026-05-06 10:37 33.09047 -16.32494 6589 ft 196 kts 226°
2026-05-06 10:37 33.08068 -16.33627 6441 ft 197 kts 225°
2026-05-06 10:38 33.07090 -16.34760 6279 ft 196 kts 225°
2026-05-06 10:38 33.06128 -16.35873 6126 ft 194 kts 225°
2026-05-06 10:38 33.05155 -16.36997 5982 ft 192 kts 224°
2026-05-06 10:38 33.04204 -16.38082 5842 ft 191 kts 224°
2026-05-06 10:39 33.03220 -16.39185 5708 ft 192 kts 223°
2026-05-06 10:39 33.02258 -16.40262 5602 ft 193 kts 223°
2026-05-06 10:39 33.01289 -16.41347 5471 ft 188 kts 223°
2026-05-06 10:39 33.00348 -16.42402 5327 ft 183 kts 223°
2026-05-06 10:40 32.99428 -16.43433 5189 ft 181 kts 223°
2026-05-06 10:40 32.98498 -16.44477 5038 ft 182 kts 222°
2026-05-06 10:40 32.97584 -16.45501 4920 ft 179 kts 222°
2026-05-06 10:40 32.96677 -16.46517 4783 ft 181 kts 222°
2026-05-06 10:41 32.95747 -16.47559 4674 ft 186 kts 222°
2026-05-06 10:41 32.94817 -16.48601 4579 ft 184 kts 221°
2026-05-06 10:41 32.93865 -16.49668 4434 ft 187 kts 221°
2026-05-06 10:41 32.92921 -16.50726 4365 ft 186 kts 221°
2026-05-06 10:42 32.92041 -16.51711 4297 ft 186 kts 221°
2026-05-06 10:42 32.91100 -16.52766 4220 ft 186 kts 221°
2026-05-06 10:42 32.90157 -16.53823 4148 ft 186 kts 220°
2026-05-06 10:42 32.89212 -16.54879 4056 ft 186 kts 220°
2026-05-06 10:43 32.88267 -16.55936 3986 ft 186 kts 220°
2026-05-06 10:43 32.87323 -16.56991 3904 ft 186 kts 220°
2026-05-06 10:43 32.86400 -16.58020 3801 ft 187 kts 220°
2026-05-06 10:44 32.84470 -16.60143 3586 ft 190 kts 218°
2026-05-06 10:44 32.83486 -16.61190 3482 ft 190 kts 218°
2026-05-06 10:44 32.82483 -16.62206 3370 ft 187 kts 214°
2026-05-06 10:44 32.81403 -16.63049 3252 ft 184 kts 205°
2026-05-06 10:45 32.80251 -16.63693 3121 ft 181 kts 197°
2026-05-06 10:45 32.79062 -16.64178 3009 ft 182 kts 194°
2026-05-06 10:45 32.77852 -16.64666 2909 ft 184 kts 194°
2026-05-06 10:45 32.77052 -16.64989 2843 ft 184 kts 195°
2026-05-06 10:46 32.75847 -16.65477 2738 ft 182 kts 194°
2026-05-06 10:46 32.74641 -16.65965 2619 ft 183 kts 194°
2026-05-06 10:46 32.73451 -16.66448 2482 ft 178 kts 195°
2026-05-06 10:46 32.72281 -16.66924 2392 ft 174 kts 194°
2026-05-06 10:47 32.71109 -16.67397 2276 ft 182 kts 195°
2026-05-06 10:47 32.69914 -16.67883 2213 ft 183 kts 194°
2026-05-06 10:47 32.68676 -16.68382 2164 ft 189 kts 195°
2026-05-06 10:47 32.67452 -16.68876 2033 ft 179 kts 195°
2026-05-06 10:48 32.66304 -16.69344 1990 ft 170 kts 195°
2026-05-06 10:48 32.65168 -16.69803 2033 ft 175 kts 196°
2026-05-06 10:48 32.64030 -16.70269 2024 ft 172 kts 197°
2026-05-06 10:48 32.62966 -16.70878 2006 ft 169 kts 210°
2026-05-06 10:49 32.62067 -16.71789 2021 ft 171 kts 225°
2026-05-06 10:49 32.61383 -16.72949 2026 ft 173 kts 241°
2026-05-06 10:49 32.60950 -16.74287 2020 ft 174 kts 256°
2026-05-06 10:49 32.60795 -16.75698 2020 ft 172 kts 270°
2026-05-06 10:50 32.60921 -16.77089 2023 ft 169 kts 285°
2026-05-06 10:50 32.61358 -16.78387 2024 ft 171 kts 302°
2026-05-06 10:50 32.62105 -16.79473 2033 ft 171 kts 322°
2026-05-06 10:50 32.63104 -16.80194 2013 ft 166 kts 342°
2026-05-06 10:51 32.64176 -16.80589 1821 ft 159 kts 354°
2026-05-06 10:51 32.65218 -16.80679 1656 ft 142 kts
2026-05-06 10:51 32.66213 -16.80551 1275 ft 143 kts 14°
2026-05-06 10:51 32.67143 -16.80132 853 ft 145 kts 27°
2026-05-06 10:52 32.67968 -16.79477 511 ft 138 kts 35°
2026-05-06 10:52 32.68652 -16.78750 259 ft 125 kts 40°
2026-05-06 10:52 32.69226 -16.78104 160 ft 101 kts 44°
2026-05-06 10:52 32.69624 -16.77637 172 ft 60 kts 47°
2026-05-06 10:53 32.69815 -16.77416 175 ft 17 kts 45°
2026-05-06 10:53 32.69893 -16.77326 178 ft 27 kts 44°
2026-05-06 10:53 32.69929 -16.77179 177 ft 18 kts 146°
2026-05-06 10:53 32.69813 -16.77212 172 ft 19 kts 221°
2026-05-06 10:54 32.69744 -16.77295 168 ft 13 kts 227°
2026-05-06 10:54 32.69679 -16.77378 166 ft 14 kts 227°
2026-05-06 10:54 32.69617 -16.77458 173 ft 13 kts 225°
2026-05-06 10:54 32.69552 -16.77531 173 ft 13 kts 225°
2026-05-06 10:55 32.69494 -16.77601 172 ft 13 kts 226°
2026-05-06 10:55 32.69428 -16.77682 169 ft 15 kts 225°
2026-05-06 10:55 32.69359 -16.77770 168 ft 12 kts 227°
2026-05-06 10:55 32.69341 -16.77791 167 ft 0 kts 218°
2026-05-06 10:56 32.69314 -16.77789 169 ft 5 kts 150°
2026-05-06 10:56 32.69289 -16.77764 172 ft 0 kts 137°
2026-05-06 10:56 32.69284 -16.77758 173 ft 2 kts 137°
2026-05-06 10:57 32.69280 -16.77754 172 ft 0 kts 137°